Location: Unspecified
(35.6961°N, 0.0000°E)
Time: 01:48:24
(UTC+00:00)

S-56A Canister/Altair - Pass Details

Date: 09 October 2020
Orbit: 632 x 2500 km, 38.9° (Epoch: 20 October)

Event Time Altitude Azimuth Distance (km) Brightness Sun altitude
Rises 17:30:54 0° 292° (WNW) 6,176 13.4 -0.6°
Reaches altitude 10° 17:35:10 10° 288° (WNW) 5,159 13.1 -1.5°
Maximum altitude 17:49:06 49° 220° (SW) 2,703 10.7 -4.3°
Drops below altitude 10° 18:00:03 10° 149° (SSE) 4,094 11.0 -6.5°
Sets 18:03:02 0° 144° (SE) 4,849 11.3 -7.1°
